Regional Weather Roundup
Issued by NWS

Home | Current Version | Previous Version | Graphics & Text | Print | Product List | Glossary Off
Versions: 1 2 3 4 5 6 7 8 9 10 11 12 13 14 15 16 17 18 19 20 21 22 23 24 25 26 27 28 29 30 31 32 33 34 35 36 37 38 39 40 41 42 43 44 45 46 47 48 49 50

000
ASUS43 KMKX 020611
RWRWI

WISCONSIN REGIONAL WEATHER ROUNDUP
NATIONAL WEATHER SERVICE MILWAUKEE/SULLIVAN WI
100 AM CDT TUE SEP 02 2014

NOTE: "FAIR" INDICATES FEW OR NO CLOUDS BELOW 12,000 FEET WITH NO
SIGNIFICANT WEATHER AND/OR OBSTRUCTIONS TO VISIBILITY.

WIZ001-002-006>008-014>016-023>028-020700-
NORTHWEST WISCONSIN

CITY           SKY/WX    TMP DP  RH WIND       PRES   REMARKS
SUPERIOR ARPT  FAIR      55  53  92 SW5       29.76R
6HR MIN TEMP:  53; 6HR MAX TEMP:  69;

ASHLAND        FAIR      56  51  84 SW6       29.77S
6HR MIN TEMP:  55; 6HR MAX TEMP:  68;

HAYWARD        FAIR      52  52 100 CALM      29.80R
6HR MIN TEMP:  52; 6HR MAX TEMP:  68;

SIREN          FAIR      58  56  92 CALM      29.79R
6HR MIN TEMP:  57; 6HR MAX TEMP:  69;

RICE LAKE      FAIR      55  54  95 CALM      29.82S
6HR MIN TEMP:  55; 6HR MAX TEMP:  69; 6HR PCP:  0.01;

LADYSMITH      FAIR      56  54  93 CALM      29.82F
6HR MIN TEMP:  56; 6HR MAX TEMP:  69;

EAU CLAIRE     FAIR      59  58  96 SW7       29.82R
6HR MIN TEMP:  59; 6HR MAX TEMP:  71;

MENOMONIE      FAIR      59  57  93 CALM      29.82S
6HR MIN TEMP:  59; 6HR MAX TEMP:  74;

NEW RICHMOND   FAIR      59  58  94 NW5       29.83R
6HR MIN TEMP:  58; 6HR MAX TEMP:  70;

OSCEOLA        FAIR      58  58 100 CALM      29.84R
6HR MIN TEMP:  56; 6HR MAX TEMP:  71;

$$

WIZ003>005-009-010-017-018-020700-
NORTH CENTRAL WISCONSIN

CITY           SKY/WX    TMP DP  RH WIND       PRES   REMARKS
WOODRUFF       FAIR      57  54  90 CALM      29.81S
6HR MIN TEMP:  57; 6HR MAX TEMP:  67;

RHINELANDER    FAIR      52  51  97 W5        29.83R
6HR MIN TEMP:  52; 6HR MAX TEMP:  66;

EAGLE RIVER    FAIR      52  52 100 CALM      29.81R
LAND O LAKES     N/A     48  48 100 CALM      29.82R FOG
6HR MIN TEMP:  48; 6HR MAX TEMP:  66;

PHILLIPS       FAIR      52  51  97 CALM      29.81S
6HR MIN TEMP:  52; 6HR MAX TEMP:  67;

TOMAHAWK       FAIR      49  48  96 CALM      29.83R
6HR MIN TEMP:  49; 6HR MAX TEMP:  66;

MEDFORD        FAIR      55  53  94 S3        29.84R
6HR MIN TEMP:  55; 6HR MAX TEMP:  66;

MERRILL        FAIR      52  52 100 CALM      29.84R
6HR MIN TEMP:  51; 6HR MAX TEMP:  68;

$$

WIZ029-030-035-036-043>047-020700-
CENTRAL WISCONSIN

CITY           SKY/WX    TMP DP  RH WIND       PRES   REMARKS
WAUSAU         FAIR      57  55  93 CALM      29.83R
6HR MIN TEMP:  57; 6HR MAX TEMP:  70;

MOSINEE        FAIR      55  55 100 CALM      29.86R
MARSHFIELD     FAIR      59  55  87 W7        29.85R
6HR MIN TEMP:  58; 6HR MAX TEMP:  70;

STEVENS POINT  FAIR      55  54  97 S3        29.86R
6HR MIN TEMP:  54; 6HR MAX TEMP:  70;

WAUPACA        FAIR      60  59  95 CALM      29.85R
6HR MIN TEMP:  60; 6HR MAX TEMP:  73;

WAUTOMA        FAIR      58  57  96 CALM      29.86R
6HR MIN TEMP:  58; 6HR MAX TEMP:  72; 6HR PCP: TRACE;

WISC RAPIDS    FAIR      57  56  96 CALM      29.87R FOG
6HR MIN TEMP:  56; 6HR MAX TEMP:  72;

CAMP DOUGLAS   FAIR      55  55 100 SE3       29.86S FOG
$$

WIZ011>013-019>022-031-037>040-048>050-020700-
NORTHEAST WISCONSIN

CITY           SKY/WX    TMP DP  RH WIND       PRES   REMARKS
ANTIGO         FAIR      53  53  99 CALM      29.84S
6HR MIN TEMP:  52; 6HR MAX TEMP:  66;

STURGEON BAY   FAIR      63  57  82 W5        29.81R
6HR MIN TEMP:  63; 6HR MAX TEMP:  72;

GREEN BAY      FAIR      60  58  92 W6        29.82R
6HR MIN TEMP:  60; 6HR MAX TEMP:  72;

MANITOWOC      FAIR      65  63  93 W3        29.82R
6HR MIN TEMP:  65; 6HR MAX TEMP:  73;

APPLETON       FAIR      61  61 100 W5        29.84S
CLINTONVILLE   FAIR      59  55  88 W5        29.83R
OSHKOSH        FAIR      64  61  90 W3        29.84R
6HR MIN TEMP:  63; 6HR MAX TEMP:  71;

$$

WIZ032>034-041-042-053>061-020700-
SOUTHWEST WISCONSIN

CITY           SKY/WX    TMP DP  RH WIND       PRES   REMARKS
LA CROSSE      FAIR      63  60  90 SE5       29.85R
6HR MIN TEMP:  63; 6HR MAX TEMP:  76;

SPARTA         FAIR      56  55  97 SE3       29.86F
6HR MIN TEMP:  55; 6HR MAX TEMP:  73;

VIROQUA        FAIR      60  60 100 SW5       29.89R
6HR MIN TEMP:  58; 6HR MAX TEMP:  70;

BOSCOBEL       FOG       59  57  93 CALM      29.87S VSB 1/4
6HR MIN TEMP:  60; 6HR MAX TEMP:  76;

PRAIRIE DU CHI FAIR      60  58  93 CALM      29.86S
6HR MIN TEMP:  60; 6HR MAX TEMP:  75;

PLATTEVILLE    FAIR      64  62  91 CALM      29.88R
6HR MIN TEMP:  64; 6HR MAX TEMP:  72;

$$

WIZ056-057-062-063-064-067-068-020700-
SOUTH CENTRAL WISCONSIN

CITY           SKY/WX    TMP DP  RH WIND       PRES   REMARKS
BARABOO/DELLS  FAIR      61  58  91 CALM      29.87R
6HR MIN TEMP:  61; 6HR MAX TEMP:  72;

LONE ROCK      HAZE      62  57  83 CALM      29.86S VSB 3/4
6HR MIN TEMP:  62; 6HR MAX TEMP:  77;

WATERTOWN      FAIR      62  62 100 CALM      29.85R
6HR MIN TEMP:  61; 6HR MAX TEMP:  71;

MADISON        FAIR      66  61  84 CALM      29.86R
6HR MIN TEMP:  63; 6HR MAX TEMP:  73;

MIDDLETON      FAIR      64  63  94 CALM      29.87S
6HR MIN TEMP:  62; 6HR MAX TEMP:  73;

MONROE         FAIR      66  61  82 W8        29.86F
JANESVILLE     FAIR      66  63  88 SW5       29.86R
$$

WIZ051-052-058>065-066-070>072-020700-
SOUTHEAST WISCONSIN

CITY           SKY/WX    TMP DP  RH WIND       PRES   REMARKS
MILWAUKEE      MOCLDY    69  63  81 W6        29.84S
6HR MIN TEMP:  69; 6HR MAX TEMP:  74; 6HR PCP: TRACE;

WAUKESHA       FAIR      63  61  94 SW3       29.87R
MILWAUKEE/TIMM FAIR      64  59  82 W5        29.86R
RACINE         FAIR      67  65  93 SW6       29.88R
6HR MIN TEMP:  67; 6HR MAX TEMP:  78; 6HR PCP:  0.24;

BURLINGTON     FAIR      63  63  99 CALM      29.85R
6HR MIN TEMP:  61; 6HR MAX TEMP:  73;

KENOSHA        FAIR      67  65  93 SW5       29.87R
6HR MIN TEMP:  65; 6HR MAX TEMP:  77; 6HR PCP: TRACE;

FOND DU LAC    FAIR      63  60  90 W6        29.84S
6HR MIN TEMP:  63; 6HR MAX TEMP:  69;

SHEBOYGAN      FAIR      61  60  97 W5        29.83R
6HR MIN TEMP:  60; 6HR MAX TEMP:  73;

WEST BEND      FAIR      63  59  88 W3        29.85R
JUNEAU         FAIR      61  61  99 SW3       29.87R FOG
6HR MIN TEMP:  61; 6HR MAX TEMP:  69;

$$

LSZ147-162-020700-
LAKE SUPERIOR

STATION/POSITION TIME  TEMP    WIND        PRES    WAVE
                       AIR SEA DIR/SP/G            HT/PER
                 (UTC) (F)     (DEG/KT/KT) (MB)    (FT/S)
W MID LAKE BUOY  0550   61 57  250/ 10/ 12 1006.3R   1/ 3
DEVILS ISLAND    0600   63     240/ 11/ 13 1007.0R
PORT WING        0500   58     190/  5/  6 1007.8R
SAXON HARBOR     0500   60     200/  7/ 10 1007.8
$$

LMZ867-665-643>646-020700-
LAKE MICHIGAN

STATION/POSITION TIME  TEMP    WIND        PRES    WAVE
                       AIR SEA DIR/SP/G            HT/PER
                 (UTC) (F)     (DEG/KT/KT) (MB)    (FT/S)
N MID LAKE BUOY  0550   66 65  230/  6/  6 1008.1R   2/ 6
NORTHPORT PIER   0500   66     280/  5/  8 1007.8R
KEWAUNEE LAKESHO 0500   64     300/  4/  5 1008.2R
SHEBOYGAN LAKESH 0600   65 51  250/  7/  8 1010.1R
ATWATER BUOY     0500   68     260/  6/  8 1011.5R
MILWAUKEE LAKESH 0500   71     280/  7/  9   N/A
S MID LAKE BUOY  0550   71 70  250/  8/  8 1010.4R   1/ 3
KENOSHA   LAKESH 0600   70     250/  5/  7 1010.8R
$$

TC  - TEMPERATURE IN CELSIUS
VSB - VISIBILITY IN STATUTE MILES
WCI - WIND CHILL INDEX
HX  - HEAT INDEX



USA.gov is the U.S. government's official web portal to all federal, state and local government web resources and services.